Location: Newark
(7.0858°N, 171.3717°E)
Time: 16:48:29
(UTC+00:00)

Transit 2A - Pass Details

Date: 27 November 2020
Orbit: 598 x 960 km, 66.7° (Epoch: 20 January)

Event Time Altitude Azimuth Distance (km) Brightness Sun altitude
Rises 06:20:13 0° 238° (WSW) 3,589 11.8 -2.1°
Reaches altitude 10° 06:23:59 10° 261° (W) 2,674 10.6 -3.0°
Maximum altitude 06:27:20 15° 293° (WNW) 2,349 9.2 -3.7°
Drops below altitude 10° 06:30:42 10° 326° (NW) 2,680 9.0 -4.5°
Sets 06:34:32 0° 349° (N) 3,603 9.4 -5.4°
